Flag for Finland Weather past 2 weeks in Kuopio, Finland

Now
55 °F

Clear.


Feels Like: 53 °F
Forecast: 54 / 65 °F
Wind: 9 mph from West

Location: Kuopio Airport

Current Time: Aug 30, 2015 at 12:33:33 AM

Latest Report: Aug 29, 2015 at 11:50 PM


Visibility: 10 mi

Pressure: 29.86 "Hg

Humidity: 82%

Dew point: 50 °F

Location of KuopioLocation

Historic Weather in Kuopio — Graph

°F

Kuopio temperature yesterday

Maximum temperature yesterday: 64 °F (at 2:20 PM)
Minimum temperature yesterday: 55 °F (at 2:50 AM)
Average temperature yesterday: 59 °F

Past Weeks' High & Low Weather Summary

 TemperatureHumidityPressure
High77 °F (Aug 24, 4:20 PM)100% (Aug 17, 5:20 AM)30.42 "Hg (Aug 17, 5:20 AM)
Low50 °F (Aug 15, 4:20 AM)31% (Aug 19, 5:50 PM)29.53 "Hg (Aug 28, 6:50 PM)
Average63 °F72%30.15 "Hg
* Reported Aug 14 11:20 PM — Aug 29 11:20 PM, Kuopio, Weather by CustomWeather, © 2015

Note: Actual official high and low records may vary slightly from our data, if they occured in-between our weather recording intervals... More about our weather records

Advertising

Kuopio weather history for previous 24 hours

 ConditionsComfort  
Time TempWeatherWind HumidityBarometerVisibility
11:20 PM
Sat, Aug 29
57 °FClear.7 mph82%29.86 "Hg10 mi
10:50 PM57 °FClear.7 mph77%29.86 "Hg10 mi
10:20 PM57 °FClear.7 mph77%29.83 "Hg10 mi
9:50 PM57 °FClear.8 mph77%29.83 "Hg10 mi
9:20 PM59 °FSunny.7 mph77%29.83 "Hg10 mi
8:50 PM59 °FSunny.8 mph72%29.83 "Hg10 mi
8:20 PM61 °FSunny.7 mph68%29.80 "Hg10 mi
7:50 PM61 °FPassing clouds.6 mph72%29.80 "HgN/A
7:20 PM63 °FPassing clouds.7 mph64%29.80 "HgN/A
6:50 PM63 °FSunny.12 mph64%29.80 "Hg10 mi
6:20 PM64 °FPassing clouds.12 mph60%29.77 "HgN/A
5:50 PM64 °FPassing clouds.14 mph60%29.77 "HgN/A
5:20 PM64 °FPartly sunny.12 mph64%29.77 "HgN/A
4:50 PM64 °FScattered clouds.14 mph60%29.74 "HgN/A
4:20 PM64 °FPassing clouds.14 mph60%29.74 "HgN/A
3:50 PM64 °FSunny.13 mph64%29.74 "Hg10 mi
3:20 PM64 °FPassing clouds.13 mph64%29.74 "HgN/A
2:50 PM64 °FPartly sunny.14 mph60%29.71 "HgN/A
2:20 PM64 °FPartly sunny.15 mph60%29.71 "HgN/A
1:50 PM63 °FPartly sunny.12 mph68%29.71 "HgN/A
12:50 PM63 °FPartly sunny.10 mph64%29.68 "HgN/A
12:20 PM63 °FPartly sunny.13 mph68%29.68 "HgN/A
11:50 AM59 °FScattered clouds.16 mph77%29.65 "HgN/A
11:20 AM61 °FScattered clouds.13 mph77%29.65 "HgN/A
10:50 AM59 °FPartly sunny.13 mph82%29.65 "HgN/A
10:20 AM57 °FPartly sunny.13 mph88%29.65 "HgN/A
9:50 AM57 °FPartly sunny.10 mph88%29.62 "HgN/A
8:50 AM55 °FPartly sunny.12 mph94%29.62 "HgN/A
8:20 AM55 °FScattered showers. Mostly cloudy.10 mph94%29.59 "HgN/A
7:50 AM55 °FSprinkles. Low clouds.9 mph94%29.59 "Hg6 mi
7:20 AM55 °FOvercast.8 mph94%29.59 "HgN/A
6:50 AM55 °FOvercast.9 mph88%29.59 "HgN/A
6:20 AM55 °FOvercast.7 mph94%29.59 "HgN/A
5:50 AM55 °FMostly cloudy.8 mph94%29.59 "HgN/A
5:20 AM55 °FOvercast.7 mph94%29.59 "HgN/A
4:50 AM55 °FPassing clouds.7 mph88%29.59 "HgN/A
4:20 AM55 °FPassing clouds.7 mph94%29.59 "HgN/A
3:50 AM55 °FPassing clouds.8 mph88%29.59 "HgN/A
3:20 AM55 °FPassing clouds.7 mph88%29.56 "HgN/A
2:50 AM55 °FClear.8 mph94%29.56 "Hg10 mi
2:20 AM57 °FClear.8 mph88%29.56 "Hg10 mi
1:50 AM57 °FClear.7 mph88%29.56 "Hg10 mi
1:20 AM57 °FClear.9 mph88%29.56 "Hg10 mi
12:50 AM57 °FClear.9 mph88%29.56 "Hg10 mi
12:20 AM59 °FClear.10 mph88%29.56 "Hg10 mi
Weather by CustomWeather, © 2015

See weather overviewHow to use our weather pages